{"data":{"norad_id":54694,"epoch":"2026-05-25T05:19:18.928704Z","epoch_age_seconds":55738,"freshness":"FRESH","line1":"1 54694U 22167N   26145.22174686  .00011910  00000+0  33352-3 0  9990","line2":"2 54694  97.6794 314.3169 0005217 204.9169 155.1824 15.36782072191968","mean_motion":15.36782072,"eccentricity":0.0005217,"inclination_deg":97.6794,"raan_deg":314.3169,"arg_perigee_deg":204.9169,"mean_anomaly_deg":155.1824,"bstar":0.00033352,"rev_number":19196,"period_min":93.702290405168,"perigee_km":452.06718957662,"apogee_km":459.19754453421,"semimajor_km":6833.7693670554,"source":"CELESTRAK","updated_at":"2026-05-25T13:37:58.710140Z"}}